Theta_e
276 275 274 274 274 274 274 273 273 273 273 272 272 272 273 275 276 278 282 285 293 293 294 296 297 298 300 307 316 316 315 316 315 301 311 313 315 315 316 316 316 316 314
274 273 272 273 273 273 273 273 273 272 272 272 271 272 272 272 274 277 280 283 293 293 293 293 296 299 299 312 314 315 315 315 313 304 304 307 312 313 315 315 316 315 315
273 272 271 271 272 272 272 272 271 271 271 270 271 271 271 272 273 275 279 281 283 292 293 292 292 297 299 310 313 314 315 315 311 308 306 306 305 309 311 312 314 315 315
271 270 270 271 271 271 271 271 270 270 270 270 270 270 271 272 272 275 278 279 282 287 293 293 292 293 299 298 312 313 313 312 308 309 308 306 304 303 309 307 308 312 313
270 269 270 270 270 270 270 269 268 269 269 269 269 270 270 270 272 274 277 279 281 284 292 293 292 292 296 299 312 311 311 307 307 307 307 307 305 301 307 308 308 306 308
269 269 269 269 269 269 268 268 267 267 268 268 268 269 270 271 272 274 278 280 281 284 287 292 292 292 295 298 312 311 311 306 306 307 305 305 303 303 307 306 303 302 301
268 267 267 268 267 267 266 266 266 266 267 267 268 269 270 270 272 274 277 279 281 283 286 290 292 292 292 297 311 312 311 307 308 308 305 307 302 304 306 303 303 304 305
267 266 267 266 265 265 264 264 264 266 267 268 269 269 269 270 272 274 276 279 281 282 284 287 291 291 292 294 307 310 310 306 307 309 306 306 305 304 304 305 301 301 303
266 265 265 264 263 263 262 263 265 267 267 268 270 271 271 270 272 274 276 279 282 283 285 287 289 291 292 293 300 308 308 306 307 310 308 307 306 305 306 302 299 300 295
264 263 263 262 261 261 262 264 265 266 267 269 270 271 273 273 272 274 276 278 281 282 283 289 291 292 293 293 298 307 304 306 305 305 305 305 306 305 305 306 301 302 300
262 261 260 260 260 263 263 263 265 266 267 268 270 272 275 275 274 275 277 279 282 284 286 291 292 292 293 293 296 306 306 304 302 303 301 300 301 300 301 303 303 304 301
260 259 259 260 262 263 262 263 264 265 266 268 269 271 274 276 278 277 279 281 283 286 289 291 292 292 294 296 299 305 305 302 302 301 300 300 299 299 300 301 303 304 306
258 258 259 261 262 262 263 263 264 264 266 267 269 271 272 274 275 278 284 285 287 288 290 291 292 292 296 300 302 304 301 302 301 300 300 300 301 300 299 300 303 303 304
257 258 260 261 262 262 262 263 264 264 265 267 269 269 270 272 272 274 278 280 286 288 289 291 292 294 296 302 303 302 301 303 301 301 301 301 299 298 298 298 297 297 297
257 259 259 260 261 262 262 262 264 265 266 267 267 268 271 269 270 275 277 278 281 288 291 291 293 294 297 302 303 303 302 302 301 301 301 298 297 297 297 296 298 295 298
256 258 259 259 260 261 261 262 263 264 265 265 265 269 268 268 272 273 275 277 281 286 290 293 295 297 300 302 302 302 302 302 301 301 301 296 296 296 296 295 295 294 296
257 257 258 259 259 260 260 261 261 261 262 263 263 267 266 268 269 270 272 277 286 288 292 294 297 300 301 302 301 301 301 301 301 301 300 297 297 296 295 294 294 293 295
258 257 257 257 258 259 259 260 260 260 260 260 261 265 263 265 266 267 267 267 268 269 272 274 288 298 301 301 301 301 300 300 300 301 299 298 297 296 295 294 294 294 294
258 257 257 257 257 258 259 259 259 259 260 259 260 263 261 262 263 263 263 262 263 265 267 269 270 272 277 295 300 300 300 299 300 300 299 298 297 296 296 295 295 294 294
258 258 257 256 256 257 258 258 258 258 258 258 259 261 262 259 259 259 260 260 261 262 265 267 269 269 270 273 284 298 299 298 299 299 299 298 297 297 297 296 295 295 294
258 258 257 256 256 256 256 257 257 257 257 257 257 259 263 258 258 258 259 259 260 261 262 265 267 269 269 269 272 281 296 297 298 298 298 297 297 296 298 297 295 295 295
258 257 257 255 255 255 255 256 256 256 257 256 256 257 259 257 257 257 258 258 259 261 262 265 265 267 269 269 269 271 274 280 292 296 296 296 296 296 297 296 296 295 295
258 257 256 256 255 255 255 255 255 255 256 256 256 256 256 256 256 256 257 258 259 260 261 264 265 266 268 269 269 269 270 272 277 285 293 294 294 294 295 295 294 293 293
258 257 256 255 255 254 254 254 254 255 254 255 255 255 255 255 255 256 257 257 259 260 261 262 265 265 266 268 269 269 270 273 276 281 288 291 291 292 292 292 292 293 293
257 257 256 255 254 254 254 253 253 254 253 254 254 254 254 255 255 256 257 258 259 260 261 262 263 265 266 266 268 269 270 274 274 276 278 281 282 284 286 287 290 291 291
257 256 256 255 255 254 254 253 253 253 253 253 253 253 254 254 254 255 257 258 260 260 262 262 263 265 266 266 266 268 269 270 272 273 273 273 273 274 276 277 279 278 279
Wind_Speed
28 30 30 31 30 32 32 36 36 36 35 36 35 34 31 30 31 33 33 35 25 20 23 25 24 33 36 38 41 42 39 35 17 6 27 38 42 45 54 48 51 51 47
30 30 31 31 33 33 33 35 35 38 35 35 35 33 33 32 31 31 31 33 26 23 19 23 22 21 37 33 37 41 40 40 33 15 20 29 39 48 55 48 50 48 51
29 28 31 31 32 33 35 36 37 36 36 36 34 33 32 30 31 32 30 31 31 20 19 18 19 23 35 21 31 38 38 36 35 29 21 32 31 36 43 41 46 48 53
27 28 30 30 33 35 36 36 36 35 35 36 34 34 33 30 31 33 29 29 31 29 22 19 21 24 24 31 38 37 37 32 35 34 32 33 36 34 46 42 38 46 49
28 29 29 32 34 35 35 36 35 34 33 35 35 34 32 32 28 29 27 27 28 30 27 24 21 27 33 44 39 37 38 35 36 30 24 29 29 27 37 36 36 33 35
28 28 31 33 33 35 35 35 35 34 31 33 33 32 32 31 30 30 33 30 28 26 30 25 24 31 32 37 46 42 45 42 35 26 25 21 31 40 36 40 35 28 7
27 30 31 32 35 35 36 35 34 33 31 32 33 31 31 30 31 31 32 33 29 29 29 28 25 26 30 31 47 48 48 51 57 47 35 39 35 46 46 39 37 37 25
28 30 31 33 34 35 35 35 35 33 32 32 33 34 33 33 31 31 32 34 32 32 32 30 27 28 32 30 28 48 45 52 55 54 56 50 48 50 53 50 42 32 25
26 30 32 33 35 35 35 35 35 36 35 33 33 32 33 37 34 31 30 30 29 29 29 33 32 31 32 35 24 38 40 43 52 55 54 55 52 61 59 47 37 35 10
28 32 33 32 32 33 34 36 37 35 35 33 35 33 34 35 38 33 30 29 29 27 30 32 34 33 34 35 26 39 34 37 38 35 41 48 58 61 58 61 52 37 23
31 33 33 32 31 30 34 35 33 34 34 31 31 32 33 30 36 33 31 33 28 24 24 23 23 28 34 39 33 42 46 39 38 42 37 36 42 50 52 52 58 54 38
31 34 34 32 30 31 33 33 31 31 30 28 29 29 26 29 28 33 32 32 32 28 24 24 23 26 33 36 35 40 48 46 44 37 37 35 38 41 46 49 55 45 53
34 33 30 29 29 29 31 31 28 27 26 26 25 23 27 27 28 31 22 32 35 32 27 25 27 29 31 36 41 44 51 45 37 34 35 37 42 42 39 42 49 49 46
31 28 27 28 31 29 28 27 26 25 26 25 23 23 29 29 29 30 31 30 26 31 29 30 31 30 30 31 44 46 44 43 42 37 36 35 35 38 39 42 33 39 31
23 23 24 25 27 28 26 28 28 26 29 27 27 29 26 25 31 38 36 35 31 24 24 24 23 25 25 26 33 37 39 39 37 38 34 33 33 38 36 37 34 35 30
20 20 23 24 26 27 29 29 27 30 30 28 28 34 33 32 34 38 41 40 36 30 24 16 14 20 17 21 24 28 33 35 36 37 35 35 36 36 34 34 33 36 34
21 20 22 23 24 26 27 27 26 37 30 32 34 36 34 32 32 34 37 30 10 17 18 15 12 17 18 22 27 28 30 33 35 34 34 37 37 36 37 34 34 32 31
22 22 23 23 23 25 26 26 26 25 23 34 39 39 38 34 33 35 34 29 27 28 20 16 7 13 18 22 25 26 30 31 33 32 32 35 36 37 35 34 36 34 32
22 23 24 24 22 23 24 25 26 26 26 28 36 40 46 39 36 39 43 34 24 24 25 22 21 19 15 5 24 26 30 31 33 31 32 34 35 36 34 35 35 36 34
20 21 23 23 23 22 23 24 26 26 26 27 30 34 42 40 40 40 38 34 31 28 29 26 26 24 23 19 10 18 26 29 31 30 31 35 37 38 35 35 34 33 33
18 21 22 24 23 21 21 22 23 24 25 26 27 33 41 32 31 32 33 34 32 32 32 31 29 29 27 25 22 15 9 23 30 32 31 32 35 34 35 37 36 37 36
16 19 21 21 21 21 21 21 22 23 24 26 28 31 36 32 32 32 33 33 34 35 33 32 32 30 30 29 28 25 20 12 7 21 27 29 32 34 32 32 32 31 33
15 17 20 21 21 21 20 21 21 23 24 25 27 28 31 31 31 32 33 33 35 35 35 34 38 38 37 35 33 31 27 21 13 2 16 21 24 25 27 28 29 27 27
13 16 18 19 21 22 21 20 20 21 22 24 25 27 28 29 30 32 34 35 35 36 38 38 40 43 44 42 39 38 36 26 21 14 12 18 18 20 19 19 22 25 26
10 13 16 17 19 20 22 21 21 21 22 22 24 24 26 27 30 34 36 38 37 37 38 40 41 43 46 49 47 45 42 35 31 25 23 21 21 19 18 17 15 15 16
9 11 14 15 16 18 20 21 22 22 22 22 23 25 25 25 27 31 35 37 37 37 40 41 42 42 46 48 49 47 46 43 38 34 31 31 31 27 25 25 24 22 21
Wind_Direction
316 314 311 304 304 303 300 298 294 294 291 291 292 291 290 292 291 292 290 293 252 258 258 271 251 254 262 261 177 178 175 172 170 137 166 168 171 171 176 179 184 182 184
317 311 309 308 310 307 302 299 297 296 293 291 292 289 289 287 284 282 284 280 261 238 247 259 278 260 280 205 176 178 176 172 164 154 156 166 173 175 175 178 184 184 186
313 312 311 309 310 306 304 302 301 297 295 293 291 288 288 286 285 281 277 279 289 262 255 266 283 266 262 222 185 179 176 170 168 160 157 169 163 171 167 174 182 184 188
315 314 311 313 310 306 305 303 303 300 296 294 291 288 286 283 284 279 275 280 278 284 263 257 270 287 274 290 185 180 171 161 160 168 166 166 165 170 171 168 172 181 183
317 316 313 313 310 307 308 306 304 302 299 296 293 289 285 281 275 280 273 272 273 275 276 266 277 281 280 302 180 176 166 156 162 163 164 165 165 163 170 177 180 174 178
317 315 315 314 314 312 311 310 308 305 303 300 293 288 285 280 277 271 267 267 269 270 270 265 268 279 301 296 180 174 172 162 162 160 168 168 167 171 169 168 166 164 174
319 319 318 318 316 316 315 314 310 307 306 299 294 290 284 279 279 275 270 267 266 264 263 269 261 274 293 285 183 182 182 173 173 171 172 176 167 174 168 166 174 174 176
321 320 322 320 318 317 317 316 310 309 308 302 295 288 282 278 277 272 265 261 259 258 258 258 264 271 277 276 212 182 183 177 176 177 177 177 175 172 172 175 171 165 168
324 322 322 320 318 317 316 317 313 314 310 305 298 291 277 274 277 270 260 258 255 253 254 250 249 254 263 277 258 177 178 182 187 187 182 175 175 175 174 163 159 160 142
325 320 320 318 315 314 315 317 315 313 310 311 305 298 287 269 273 270 260 252 253 252 247 248 236 240 253 263 256 175 175 178 179 178 172 172 179 179 178 182 171 173 170
322 321 321 320 317 321 320 318 318 317 314 313 309 311 307 285 270 267 255 247 248 253 241 238 225 237 251 252 251 186 180 171 167 164 163 163 165 171 177 181 181 180 176
325 325 326 326 326 327 325 321 324 322 319 319 318 315 320 316 321 269 255 245 241 244 250 243 243 243 244 242 236 193 173 167 165 162 163 168 170 175 183 186 188 186 195
331 331 327 329 332 334 331 325 329 328 327 324 321 322 321 321 321 324 291 248 243 242 239 244 246 251 253 240 217 188 167 169 168 166 173 178 181 176 178 182 196 192 203
335 329 333 336 336 339 338 332 333 334 330 328 330 328 319 325 326 325 326 312 297 248 249 248 248 252 253 224 193 174 174 175 175 178 179 178 170 169 175 178 179 186 189
334 333 337 339 339 338 343 338 339 342 340 337 338 323 328 325 318 314 312 309 301 285 240 234 235 238 246 205 187 182 178 178 177 177 178 168 171 173 178 178 182 182 193
340 341 342 342 342 342 341 339 348 355 357 354 350 342 339 324 319 322 318 309 293 272 261 240 222 227 216 191 181 181 180 181 180 178 179 172 173 175 174 179 178 186 190
1 348 345 347 345 343 343 344 340 348 1 6 2 359 355 347 343 340 333 331 345 261 239 239 222 214 196 185 178 176 181 184 177 182 180 176 177 177 171 177 183 184 191
17 14 358 349 344 343 344 343 344 347 348 351 357 3 8 7 7 6 9 28 25 26 17 1 307 205 187 184 177 176 181 177 180 182 178 179 179 175 175 179 187 186 188
24 20 10 1 351 347 347 350 351 351 354 356 354 1 7 12 16 22 26 27 18 17 10 6 0 2 12 193 177 177 177 179 183 181 181 178 181 180 181 183 187 189 186
32 30 23 14 359 354 355 355 355 356 356 359 2 355 4 8 14 14 16 17 16 14 11 8 7 12 12 17 25 180 174 173 182 183 183 182 182 185 183 184 187 187 194
36 34 28 21 12 359 356 356 355 357 358 358 360 360 15 15 11 11 11 12 11 12 9 11 10 18 17 15 22 29 186 182 185 187 187 187 184 188 191 187 189 192 194
45 43 35 23 18 6 358 360 357 359 360 359 358 359 12 13 14 11 11 7 10 14 12 17 18 19 24 23 22 26 34 46 181 200 195 190 190 192 189 186 189 192 193
46 44 40 31 25 17 7 5 4 1 358 1 0 1 6 7 8 9 8 7 12 13 15 21 24 23 26 29 30 34 30 25 19 286 194 188 189 190 188 187 183 183 188
48 48 44 35 28 25 15 3 2 4 1 360 2 2 3 5 5 7 10 10 14 15 19 22 26 27 29 30 31 34 42 46 53 68 139 164 168 175 178 184 187 190 187
44 49 49 41 33 25 21 15 8 5 2 2 359 2 3 4 9 13 15 20 18 19 21 24 28 28 31 33 33 35 45 54 58 67 79 93 101 111 123 129 143 154 167
51 43 45 40 35 29 23 19 15 10 4 1 4 5 4 6 9 16 24 25 26 25 29 27 31 33 34 33 35 37 38 49 58 62 66 72 72 70 80 88 96 89 94